Auburn, IN

2:10 AM EDT on October 21, 2019 (GMT -0400)
Auburn

Weather History for KGWB - August, 2019

Change the Weather History Date:

Monday, August 19, 2019

  Actual Average (KFWA) Record (KFWA)
Temperature  
Mean Temperature 73 °F -  
Max Temperature 82 °F 81 °F 99 °F (1983)
Min Temperature 64 °F 61 °F 48 °F (1964)
Cooling Degree Days 8    
Growing Degree Days 23 (Base 50)    
Moisture  
Dew Point 69 °F    
Average Humidity 88    
Maximum Humidity 100    
Minimum Humidity 65    
Precipitation  
Precipitation 0.01 in - - ()
Sea Level Pressure  
Sea Level Pressure 30.03 in    
Wind  
Wind Speed 1 mph (SSE)    
Max Wind Speed 6 mph    
Max Gust Speed -    
Visibility 8 miles    
Events Fog    
Averages and records for this station are not official NWS values.
T = Trace of Precipitation, MM = Missing Value Source: NWS Daily Summary

Daily Weather History Graph

Daily Weather History Graph

Search for Another Location

Airport or City:

Astronomy

Aug. 19, 2019 Rise Set
Actual Time 6:53 AM EDT 8:33 PM EDT
Civil Twilight 6:23 AM EDT 9:03 PM EDT
Nautical Twilight 5:48 AM EDT 9:38 PM EDT
Astronomical Twilight 5:10 AM EDT 10:16 PM EDT
Moon 10:52 PM EDT (8/19) 10:35 AM EDT (8/19)
Length of Visible Light 14h 39m
Length of Day
13h 40m
Waning Gibbous, 85% of the Moon is Illuminated
Aug 19
Waning Gibbous
Aug 23
Last Quarter
Aug 30
New
Sep 5
First Quarter
Sep 14
Full

Hourly Weather History & Observations

Time (EDT) Temp. Heat Index Dew Point Humidity Pressure Visibility Wind Dir Wind Speed Gust Speed Precip Events Conditions
12:15 AM 68.0 °F - 68.0 °F 100% 29.98 in 10.0 mi Calm Calm - N/A   Scattered Clouds
12:35 AM 68.0 °F - 68.0 °F 100% 29.98 in 10.0 mi SSW 3.5 mph - N/A   Scattered Clouds
12:55 AM 68.0 °F - 68.0 °F 100% 29.98 in 10.0 mi Calm Calm - N/A   Scattered Clouds
1:15 AM 68.0 °F - 68.0 °F 100% 29.98 in 10.0 mi Calm Calm - N/A   Mostly Cloudy
1:35 AM 68.0 °F - 68.0 °F 100% 29.98 in 10.0 mi Calm Calm - N/A   Overcast
1:55 AM 68.0 °F - 68.0 °F 100% 29.98 in 10.0 mi Calm Calm - N/A   Overcast
2:15 AM 68.0 °F - 68.0 °F 100% 29.97 in 10.0 mi Calm Calm - N/A   Mostly Cloudy
2:35 AM 68.0 °F - 68.0 °F 100% 29.97 in 10.0 mi Calm Calm - N/A   Clear
2:55 AM 66.2 °F - 66.2 °F 100% 29.97 in 1.2 mi Calm Calm - N/A   Mist
3:15 AM 66.2 °F - 66.2 °F 100% 29.97 in 10.0 mi Calm Calm - N/A   Clear
3:35 AM 66.2 °F - 66.2 °F 100% 29.97 in 10.0 mi SW 3.5 mph - N/A   Clear
3:55 AM 66.2 °F - 66.2 °F 100% 29.97 in 10.0 mi Calm Calm - N/A   Clear
4:15 AM 66.2 °F - 66.2 °F 100% 29.97 in 7.0 mi Calm Calm - N/A   Clear
4:35 AM 64.4 °F - 64.4 °F 100% 29.97 in 7.0 mi Calm Calm - N/A   Scattered Clouds
4:55 AM 66.2 °F - 66.2 °F 100% 29.97 in 1.8 mi West 4.6 mph - 0.01 in   Overcast
5:15 AM 66.2 °F - 66.2 °F 100% 29.98 in 0.5 mi Calm Calm - N/A Fog Fog
5:35 AM 66.2 °F - 66.2 °F 100% 29.99 in 0.5 mi Calm Calm - N/A Fog Fog
5:55 AM 68.0 °F - 68.0 °F 100% 29.99 in 0.2 mi WSW 3.5 mph - N/A Fog Fog
6:15 AM 68.0 °F - 68.0 °F 100% 30.00 in 0.5 mi West 3.5 mph - N/A Fog Fog
6:35 AM 68.0 °F - 68.0 °F 100% 30.00 in 0.2 mi Calm Calm - N/A Fog Fog
6:55 AM 68.0 °F - 68.0 °F 100% 30.01 in 1.0 mi Calm Calm - N/A   Overcast
7:15 AM 68.0 °F - 68.0 °F 100% 30.02 in 0.5 mi Calm Calm - N/A Fog Fog
7:35 AM 68.0 °F - 68.0 °F 100% 30.03 in 0.5 mi NW 3.5 mph - N/A Fog Fog
7:55 AM 68.0 °F - 68.0 °F 100% 30.04 in 0.2 mi Calm Calm - N/A Fog Fog
8:15 AM 68.0 °F - 68.0 °F 100% 30.04 in 0.5 mi WNW 3.5 mph - N/A Fog Fog
8:35 AM 68.0 °F - 68.0 °F 100% 30.04 in 1.8 mi Calm Calm - N/A   Overcast
8:55 AM 68.0 °F - 68.0 °F 100% 30.05 in 3.0 mi Calm Calm - N/A   Overcast
9:15 AM 68.0 °F - 68.0 °F 100% 30.05 in 2.5 mi Calm Calm - N/A   Overcast
9:35 AM 69.8 °F - 69.8 °F 100% 30.05 in 4.0 mi Calm Calm - N/A   Overcast
9:55 AM 69.8 °F - 69.8 °F 100% 30.05 in 4.0 mi Calm Calm - N/A   Overcast
10:15 AM 69.8 °F - 69.8 °F 100% 30.05 in 5.0 mi Calm Calm - N/A   Overcast
10:35 AM 71.6 °F - 68.0 °F 88% 30.06 in 7.0 mi Calm Calm - N/A   Overcast
10:55 AM 73.4 °F - 69.8 °F 88% 30.07 in 10.0 mi Calm Calm - N/A   Overcast
11:15 AM 73.4 °F - 69.8 °F 88% 30.07 in 10.0 mi Calm Calm - N/A   Scattered Clouds
11:35 AM 75.2 °F - 69.8 °F 83% 30.08 in 10.0 mi Calm Calm - N/A   Clear
11:55 AM 77.0 °F - 69.8 °F 78% 30.08 in 10.0 mi Calm Calm - N/A   Scattered Clouds
12:15 PM 77.0 °F - 69.8 °F 78% 30.08 in 10.0 mi Calm Calm - N/A   Scattered Clouds
12:35 PM 77.0 °F - 69.8 °F 78% 30.08 in 10.0 mi ENE 3.5 mph - N/A   Clear
12:55 PM 78.8 °F - 69.8 °F 74% 30.08 in 10.0 mi East 5.8 mph - N/A   Clear
1:15 PM 77.0 °F - 69.8 °F 78% 30.08 in 10.0 mi Calm Calm - N/A   Clear
1:35 PM 77.0 °F - 69.8 °F 78% 30.08 in 10.0 mi ENE 3.5 mph - N/A   Scattered Clouds
1:55 PM 78.8 °F - 69.8 °F 74% 30.08 in 10.0 mi Calm Calm - N/A   Mostly Cloudy
2:15 PM 78.8 °F - 69.8 °F 74% 30.08 in 10.0 mi Calm Calm - N/A   Mostly Cloudy
2:35 PM 80.6 °F 83.9 °F 69.8 °F 70% 30.08 in 10.0 mi Calm Calm - N/A   Mostly Cloudy
2:55 PM 80.6 °F 83.9 °F 69.8 °F 70% 30.07 in 10.0 mi NE 5.8 mph - N/A   Mostly Cloudy
3:15 PM 82.4 °F 86.3 °F 69.8 °F 66% 30.07 in 10.0 mi East 4.6 mph - N/A   Mostly Cloudy
3:35 PM 82.4 °F 86.3 °F 69.8 °F 66% 30.06 in 10.0 mi ESE 4.6 mph - N/A   Scattered Clouds
3:55 PM 82.4 °F 86.3 °F 69.8 °F 66% 30.06 in 10.0 mi Calm Calm - N/A   Scattered Clouds
4:15 PM 80.6 °F 83.2 °F 68.0 °F 65% 30.06 in 10.0 mi Calm Calm - N/A   Scattered Clouds
4:35 PM 82.4 °F 86.3 °F 69.8 °F 66% 30.05 in 10.0 mi ESE 3.5 mph - N/A   Scattered Clouds
4:55 PM 82.4 °F 86.3 °F 69.8 °F 66% 30.05 in 10.0 mi SSE 3.5 mph - N/A   Scattered Clouds
5:15 PM 82.4 °F 86.3 °F 69.8 °F 66% 30.05 in 10.0 mi SSE 3.5 mph - N/A   Scattered Clouds
5:35 PM 80.6 °F 83.9 °F 69.8 °F 70% 30.05 in 10.0 mi Calm Calm - N/A   Clear
5:55 PM 82.4 °F 86.3 °F 69.8 °F 66% 30.05 in 10.0 mi Calm Calm - N/A   Clear
6:15 PM 82.4 °F 86.3 °F 69.8 °F 66% 30.04 in 10.0 mi South 3.5 mph - N/A   Clear
6:35 PM 82.4 °F 86.3 °F 69.8 °F 66% 30.04 in 10.0 mi Calm Calm - N/A   Clear
6:55 PM 80.6 °F 83.9 °F 69.8 °F 70% 30.04 in 10.0 mi Calm Calm - N/A   Clear
7:15 PM 80.6 °F 83.9 °F 69.8 °F 70% 30.03 in 10.0 mi Calm Calm - N/A   Clear
7:35 PM 80.6 °F 83.9 °F 69.8 °F 70% 30.03 in 10.0 mi Calm Calm - N/A   Clear
7:55 PM 78.8 °F - 71.6 °F 78% 30.03 in 10.0 mi Calm Calm - N/A   Clear
8:15 PM 77.0 °F - 69.8 °F 78% 30.03 in 10.0 mi Calm Calm - N/A   Clear
8:35 PM 73.4 °F - 69.8 °F 88% 30.03 in 10.0 mi Calm Calm - N/A   Clear
8:55 PM 73.4 °F - 69.8 °F 88% 30.04 in 10.0 mi Calm Calm - N/A   Clear
9:15 PM 71.6 °F - 69.8 °F 94% 30.04 in 10.0 mi Calm Calm - N/A   Clear
9:35 PM 71.6 °F - 69.8 °F 94% 30.05 in 10.0 mi Calm Calm - N/A   Clear
9:55 PM 71.6 °F - 69.8 °F 94% 30.05 in 10.0 mi Calm Calm - N/A   Clear
10:15 PM 71.6 °F - 69.8 °F 94% 30.06 in 10.0 mi Calm Calm - N/A   Clear
10:35 PM 71.6 °F - 69.8 °F 94% 30.06 in 10.0 mi Calm Calm - N/A   Clear
10:55 PM 71.6 °F - 69.8 °F 94% 30.07 in 10.0 mi Calm Calm - N/A   Clear
11:15 PM 69.8 °F - 69.8 °F 100% 30.07 in 10.0 mi Calm Calm - N/A   Clear
11:35 PM 69.8 °F - 69.8 °F 100% 30.07 in 10.0 mi Calm Calm - N/A   Clear
11:55 PM 69.8 °F - 69.8 °F 100% 30.07 in 10.0 mi Calm Calm - N/A   Clear